Buffalo, SD

4:49 PM MST on December 11, 2017 (GMT -0700)
Buffalo

Weather History for K2WX - November, 2013

Change the Weather History Date:

Friday, November 22, 2013

  Actual Average Record
Temperature  
Mean Temperature 23 °F 28 °F  
Max Temperature 33 °F 39 °F 69 °F (2017)
Min Temperature 12 °F 18 °F -5 °F (2010)
Degree Days  
Heating Degree Days 42 37  
Month to date heating degree days 681 686  
Since 1 July heating degree days 1511 1587  
Cooling Degree Days 0 0  
Month to date cooling degree days 0 0  
Year to date cooling degree days 587 513  
Moisture  
Dew Point 7 °F    
Average Humidity 61    
Maximum Humidity 88    
Minimum Humidity 33    
Precipitation  
Precipitation 0.00 in 0.00 in 0.16 in (2010)
Month to date precipitation 0.00 0.30  
Year to date precipitation 12.15 14.22  
Sea Level Pressure  
Sea Level Pressure 30.60 in    
Wind  
Wind Speed 13 mph (NNW)    
Max Wind Speed 25 mph    
Max Gust Speed 30 mph    
T = Trace of Precipitation, MM = Missing Value Source: NWS Daily Summary

Daily Weather History Graph

Daily Weather History Graph

Search for Another Location

Airport or City:

Trip Planner

Search our weather history database for the weather conditions in past years. The results will help you decide how hot, cold, wet, or windy it might be!

Date:

Astronomy

Nov. 22, 2013 Rise Set
Actual Time 7:03 AM MST 4:17 PM MST
Civil Twilight 6:30 AM MST 4:49 PM MST
Nautical Twilight 5:53 AM MST 5:26 PM MST
Astronomical Twilight 5:18 AM MST 6:01 PM MST
Moon 8:55 PM MST (11/22) 10:44 AM MST (11/22)
Length of Visible Light 10h 19m
Length of Day
9h 13m
Waning Gibbous, 77% of the Moon is Illuminated
Nov 22
Waning Gibbous
Nov 25
Last Quarter
Dec 2
New
Dec 9
First Quarter
Dec 17
Full

Hourly Weather History & Observations

Time (MST) Temp. Windchill Dew Point Humidity Pressure Visibility Wind Dir Wind Speed Gust Speed Precip Events Conditions
12:56 AM 15.1 °F -1.6 °F 5.0 °F 64% 30.53 in - WSW 18.4 mph 24.2 mph N/A   Unknown
1:56 AM 15.1 °F 1.1 °F 3.9 °F 61% 30.51 in - West 12.7 mph - N/A   Unknown
2:56 AM 17.1 °F -1.0 °F 3.9 °F 56% 30.50 in - West 24.2 mph - N/A   Unknown
3:56 AM 14.0 °F -2.0 °F 3.9 °F 64% 30.51 in - WSW 16.1 mph - N/A   Unknown
4:56 AM 15.1 °F 2.5 °F 3.0 °F 59% 30.52 in - West 10.4 mph - N/A   Unknown
5:56 AM 14.0 °F 1.2 °F 3.0 °F 62% 30.53 in - West 10.4 mph - N/A   Unknown
6:56 AM 14.0 °F -0.2 °F 3.9 °F 64% 30.54 in - West 12.7 mph - N/A   Unknown
7:56 AM 16.0 °F 4.4 °F 5.0 °F 62% 30.55 in - West 9.2 mph - N/A   Unknown
8:56 AM 25.0 °F 10.9 °F 7.0 °F 46% 30.55 in - West 19.6 mph - N/A   Unknown
9:56 AM 28.9 °F 15.1 °F 6.1 °F 38% 30.57 in - WNW 23.0 mph 29.9 mph N/A   Unknown
10:56 AM 28.9 °F 16.1 °F 6.1 °F 38% 30.58 in - WNW 19.6 mph - N/A   Unknown
11:56 AM 32.0 °F 21.6 °F 7.0 °F 35% 30.56 in - NW 15.0 mph - N/A   Unknown
12:56 PM 32.0 °F 21.6 °F 7.0 °F 35% 30.56 in - NNW 15.0 mph - N/A   Unknown
1:56 PM 30.9 °F 20.2 °F 8.1 °F 38% 30.58 in - NW 15.0 mph - N/A   Unknown
2:56 PM 30.0 °F 20.5 °F 9.0 °F 41% 30.59 in - NNW 11.5 mph - N/A   Unknown
3:41 PM 24.1 °F 10.6 °F 10.0 °F 55% 30.48 in - NNE 17.3 mph - N/A   Unknown
3:56 PM 23.0 °F 9.2 °F 9.0 °F 55% 30.65 in - NNE 17.3 mph - N/A   Unknown
4:56 PM 18.0 °F 6.9 °F 9.0 °F 68% 30.67 in - NE 9.2 mph - N/A   Unknown
5:56 PM 16.0 °F 5.3 °F 9.0 °F 74% 30.69 in - NE 8.1 mph - N/A   Unknown
6:56 PM 16.0 °F 4.4 °F 10.0 °F 77% 30.71 in - NNE 9.2 mph - N/A   Unknown
7:56 PM 17.1 °F 5.8 °F 12.0 °F 81% 30.71 in - NE 9.2 mph - N/A   Unknown
8:56 PM 16.0 °F 4.4 °F 12.0 °F 84% 30.71 in - ENE 9.2 mph - N/A   Unknown
9:56 PM 15.1 °F 1.8 °F 10.0 °F 80% 30.71 in - ENE 11.5 mph - N/A   Unknown
10:56 PM 15.1 °F 4.2 °F 10.0 °F 80% 30.71 in - East 8.1 mph - N/A   Unknown
11:56 PM 14.0 °F 2.9 °F 10.0 °F 84% 30.71 in - ENE 8.1 mph - N/A   Unknown